TDRS 9

Last updated on Wed Apr 24 2024 00:02:32 GMT+0000 (Coordinated Universal Time)

1 27389U 02011A 24114.26332328 -.00000180 00000+0 00000+0 0 9992 2 27389 10.4882 54.3551 0003189 62.5815 135.7869 0.98982413 82514
UTC large
Height (km)
Speed (km/s)
/
Latitude / Longitude
Inclination (degrees)
Orbital Period (minutes)
Azimuth
Elevation
Range (km)
Doppler Factor

Next 0 passes for location: London (51.5072 / 0.1276)

Sorry there are no passes over London.